COSMOS 249 DEB, 3923

Orbit data source: Space-Track

COSMOS 249 DEB, 3923 is space debris in LEO originally from a launch on Sun, 20 Oct 1968 UTC launched from the Tyuratam Missile And Space Complex (TTMTR). Debris objects in space refer to the collection of defunct objects orbiting the Earth. Examples of debris include non-operational satellites, rocket bodies, and fragments generated from explosions, collisions, or faulty payload assembly.

Loading next visibility...
Identifier
3923, 1968-091BR
Orbit
LEO
Country
Flag of CISCIS
Related business
Manufacturer
Unknown
Mission
Spacecraft
Bus & Motor
Unknown
Mass
Unknown
Launch date (UTC)
1968-10-20 (57 years ago)
Launch vehicle
Unknown
Launch site
Tyuratam Missile And Space Complex (TTMTR)
Object type
Payload
Rocket body
Debris
Shape & HBR
Unknown shape, 0.1 m
Radar Cross Section
Small (<0.1 m²)

Expand to show TLE details & history
Last TLE update: 1 day ago

TLE from 1 day ago
0 COSMOS 249 DEB
1 03923U 68091BR  25286.31274249  .00004790  00000-0  26979-2 0  9991
2 03923  62.2272  11.4063 0610175 146.8466 217.2388 13.44307586683414
Epoch: 2025-10-13T07:30Z
TLE epoch observation values (Epoch: 2025-10-13T07:30:20.951Z)
Latitude
-0.00002°
Longitude
-123.29833°
Altitude
1,467.412 km
Speed
6.95 km/s
True Right ascension
00h 45m 37s
True Declination
0° 00' 00"
Sunlit
Object was in full shadow at epoch
Visualization orbit readout
Latitude
Unknown
Longitude
Unknown
Altitude
Unknown
Speed
Unknown
Apparent Right ascension
Unknown
Apparent Declination
Unknown
Sunlit
N/A
Visualization observer readout
Local Sidereal Time
04:39:31
Azimuth
Unknown
Elevation
Unknown
Doppler factor
Unknown
Orbital elements
Apogee altitude
1,548.072 km
Perigee altitude
636.423 km
Semi-major axis
7,470.384 km
Eccentricity
0.06102
Inclination
62.2272°
RAAN
11.4063°
Arg. of periapsis
146.8466°
True anomaly
213.25353°
Mean anomaly
217.2388°
Eccentric anomaly
215.22245°
Mean motion
3.36147 °/min
Orbital period
107.1 mins
BSTAR
0.0026979
Loading maneuver chart data...
Computing Atmospheric mass density...
Loading historical data...
Loading historical data...
Loading historical data...
Loading historical data...
Loading historical data...
Loading historical data...
Loading historical data...

Documentation

Showing up to 5 results
|